Terug naar catalogus

DELTA 2 DEB

ActiefHEO
NORAD 26851·DEBRIS·🇺🇸 United States

Gelanceerd Sep 9, 1992 vanaf Cape Canaveral Space Force Station

Loading…

Volgende Passages (komende 24 uur)

TLE

VersSource: Space-Track

Epoch: Sep 14, 2026, 01:32 UTC

1 26851U 92058E   26257.06430056  .00019448  00000-0  50568-3 0  9995
2 26851  34.8220 177.7099 3552217  79.2203 318.1327  8.34990252669885

Volg DELTA 2 DEB in realtime met AllMySat

Download on the App Store